Regional Weather Roundup
Issued by NWS

Home | Current Version | Previous Version | Text Only | Print | Product List | Glossary Off
Versions: 1 2 3 4 5 6 7 8 9 10 11 12 13 14 15 16 17 18 19 20 21 22 23 24 25 26 27 28

000
ASUS45 KPSR 231410
RWRAZ

ARIZONA HOURLY REGIONAL WEATHER ROUNDUP
NATIONAL WEATHER SERVICE PHOENIX AZ
700 AM MST SAT SEP 23 2017

NOTE: FAIR INDICATES FEW OR NO CLOUDS BELOW 12,000 FEET WITH NO
SIGNIFICANT WEATHER AND/OR OBSTRUCTIONS TO VISIBILITY.

AZZ001>003-036-231500-
NORTHWEST ARIZONA

CITY           SKY/WX    TMP DP  RH WIND       PRES   REMARKS
BULLHEAD CITY  CLEAR     68  36  30 N14G23    29.73R
KINGMAN        CLEAR     46  29  51 E8        29.81R
$$

AZZ004>008-015-016-018-231500-
NORTH CENTRAL ARIZONA

CITY           SKY/WX    TMP DP  RH WIND       PRES   REMARKS
GRAND CANYON   PTCLDY    27  16  63 CALM      29.90R
WILLIAMS       CLEAR     41  23  48 S7        29.89R
PRESCOTT       CLEAR     42  26  53 S8        29.85R
FLAGSTAFF      CLEAR     34  27  75 CALM      29.90S
PAYSON           N/A     52  27  37 SE3       29.88R
PAGE           CLEAR     52  22  30 CALM      29.81R
$$

AZZ009>014-017-231500-
NORTHEAST ARIZONA

CITY           SKY/WX    TMP DP  RH WIND       PRES   REMARKS
WINSLOW        CLEAR     50  39  66 CALM      29.85R
SAINT JOHNS    MOSUNNY   48  40  73 CALM      29.90R
WINDOW ROCK    PTSUNNY   51  32  48 CALM      29.94R
SHOW LOW       LGT RAIN  48  46  93 S12       29.95R
$$

AZZ540-542>544-546-548-231500-
GREATER PHOENIX AREA

CITY           SKY/WX    TMP DP  RH WIND       PRES   REMARKS
PHOENIX        PTCLDY    67  32  27 E5        29.72R
BUCKEYE        CLEAR     55  18  22 NW5       29.74R
GLENDALE       PTCLDY    61  27  27 W3        29.74
LUKE AFB       CLEAR     59  27  29 NW5       29.72R
DEER VALLEY    CLEAR     59  25  27 CALM      29.73R
SCOTTSDALE     CLEAR     64  30  27 CALM      29.75R
MESA-FALCON    PTCLDY    66  28  24 S6        29.75
MESA-GATEWAY   PTCLDY    59  28  31 E8        29.75R
CHANDLER       CLEAR     64  25  22 S7        29.73R
$$

AZZ539-553-231500-
SOUTHWEST MARICOPA COUNTY AND PINAL COUNTY

CITY           SKY/WX    TMP DP  RH WIND       PRES   REMARKS
CASA GRANDE    NOT AVBL
GILA BEND      FAIR      58  21  23 S3        29.73R
$$

AZZ503-504-507>509-231500-
SOUTHEAST ARIZONA

CITY           SKY/WX    TMP DP  RH WIND       PRES   REMARKS
TUCSON         MOCLDY    69  41  36 CALM      29.82R
DAVIS-MONTHAN  CLOUDY    68  43  40 CALM      29.80R
RYAN FIELD     MOCLDY    68  43  40 MISG      29.80F
NOGALES        CLOUDY    63  48  58 E3        29.87R
SIERRA VISTA   CLOUDY    61  45  55 NW10      29.90R
DOUGLAS        SUNNY     65  53  65 S10       29.85R
SAFFORD        CLOUDY    66  44  45 NW9       29.78R
$$

AZZ532-231500-
SOUTHWEST ARIZONA

CITY           SKY/WX    TMP DP  RH WIND       PRES   REMARKS
YUMA           CLEAR     65  45  48 W7        29.73R
$$

CAZ041-043-047-048-061-525>527-560>570-231500-
SOUTHERN CALIFORNIA

CITY           SKY/WX    TMP DP  RH WIND       PRES   REMARKS
DOWNTOWN L.A.  CLEAR     61  51  70 CALM      29.83R
L.A. AIRPORT   PTCLDY    59  53  80 CALM      29.84R
SAN DIEGO      MOCLDY    62  54  74 E5        29.85R
BURBANK        CLEAR     55  45  68 CALM      29.84R
ONTARIO        PTCLDY    56  49  77 CALM      29.85R
RIVERSIDE      CLEAR     54  51  90 CALM      29.85R
PALM SPRINGS   CLEAR     63  47  55 CALM      29.76R
EL CENTRO NAS  CLEAR     65  43  44 W13       29.75R
IMPERIAL       CLEAR     63  46  54 W10       29.72R
BLYTHE         CLEAR     61  34  36 W5        29.73R
NEEDLES        CLEAR     67  28  23 N7        29.74R
$$

NVZ020-UTZ003-231500-
SOUTHERN NEVADA-UTAH

CITY           SKY/WX    TMP DP  RH WIND       PRES   REMARKS
LAS VEGAS      PTCLDY    60  29  30 VRB5      29.81R
SALT LAKE CITY PTCLDY    41  39  93 N5        29.95S
$$

NMZ009-TXZ055-231500-
NEW MEXICO-WEST TEXAS

CITY           SKY/WX    TMP DP  RH WIND       PRES   REMARKS
ALBUQUERQUE    CLOUDY    64  48  56 SE8       29.89S
EL PASO        CLOUDY    72  60  66 SE10      29.86R
$$


........................KEY........................
SKY/WX - SKY CONDITION/WEATHER
TMP    - TEMPERATURE IN FAHRENHEIT
DP     - DEW POINT IN FAHRENHEIT
RH     - RELATIVE HUMIDITY IN PERCENT
WIND   - DIRECTION AND SPEED IN MILES PER HOUR (MPH)
VRB    - VARIABLE WIND DIRECTION
PRES   - MEAN SEA LEVEL PRESSURE IN INCHES OF MERCURY
         F - FALLING PRESSURE   R - RISING PRESSURE
         S - STEADY PRESSURE
VSB    - VISIBILITY IN MILES
HX     - HEAT INDEX IN FAHRENHEIT
WCI    - WIND CHILL INDEX IN FAHRENHEIT
TC     - TEMPERATURE IN CELSIUS WHICH IS ALSO KNOWN AS
         TEMPERATURE IN CENTIGRADE
AFB    - AIR FORCE BASE
         LUKE AFB IS LUKE AIR FORCE BASE
         DAVIS-MONTHAN IS DAVIS-MONTHAN AIR FORCE BASE
NAS    - NAVAL AIR STATION
         EL CENTRO NAS IS EL CENTRO NAVAL AIR STATION
N/A    - NOT AVAILABLE





USA.gov is the U.S. government's official web portal to all federal, state and local government web resources and services.